{"data":{"norad_id":66428,"intl_designator":"2025-259G","name":"STARLINK-35610","alt_names":[],"object_type":"PAYLOAD","status":"ACTIVE","operator":null,"country":"US","launch_date":"2025-11-11","launch_site_code":"AFETR","launch_vehicle":null,"mission":null,"orbit_class":"UNKNOWN","rcs_meters":null,"size_class":null,"mass_kg":null,"dimensions":null,"purposes":["comms"],"wikipedia_slug":null,"has_3d_model":false,"image_url":null,"decayed_at":null,"tle_current":{"epoch":"2026-05-25T04:48:51.312096Z","epoch_age_seconds":58037,"freshness":"FRESH","line1":"1 66428U 25259G   26145.20059389  .00015409  00000+0  56807-3 0  9990","line2":"2 66428  43.0017 202.1691 0000731 279.1884  80.8885 15.27592621 31195","mean_motion":15.27592621,"eccentricity":7.31e-5,"inclination_deg":43.0017,"raan_deg":202.1691,"arg_perigee_deg":279.1884,"mean_anomaly_deg":80.8885,"bstar":0.00056807,"rev_number":3119,"period_min":94.265969879937,"perigee_km":482.50975454441,"apogee_km":483.51285442653,"semimajor_km":6861.1483044855,"source":"CELESTRAK","updated_at":"2026-05-25T13:38:21.207920Z"}}}